This is the latest recevied weather packets stored in our database for station/object NI4CE-10. If no packets are shown the sender has not sent any weather packets the latest 10 day(s).
| Time | Temp. | Humidity | Pressure | Rain* | Wind** | Luminosity | Snow |
|---|---|---|---|---|---|---|---|
| 1787936306 | 42.78° C | 100% | 1019.6 hPa | 0 mm | - | - | - |
| 1787936006 | 49.44° C | 100% | 1019.6 hPa | 0 mm | - | - | - |
| 1787935706 | 51.67° C | 100% | 1019.8 hPa | 0 mm | - | - | - |
| 1787935406 | 50.56° C | 100% | 1019.8 hPa | 0 mm | - | - | - |
| 1787935106 | 50° C | 100% | 1019.9 hPa | 0 mm | - | - | - |
| 1787934942 | 46.11° C | 100% | 1020 hPa | 0 mm | - | - | - |
| 1787934806 | 46.11° C | 100% | 1020 hPa | 0 mm | - | - | - |
| 1787934506 | 42.78° C | 100% | 1020 hPa | 0 mm | - | - | - |
| 1787934206 | 48.33° C | 100% | 1020.1 hPa | 0 mm | - | - | - |
| 1787933906 | 43.89° C | 100% | 1020.1 hPa | 0 mm | - | - | - |
| 1787933606 | 48.33° C | 100% | 1020.1 hPa | 0 mm | - | - | - |
| 1787933306 | 42.78° C | 100% | 1020.2 hPa | 0 mm | - | - | - |
| 1787933154 | 48.89° C | 100% | 1020.1 hPa | 0 mm | - | - | - |
| 1787933006 | 48.89° C | 100% | 1020.1 hPa | 0 mm | - | - | - |
| 1787932706 | 48.33° C | 100% | 1020.2 hPa | 0 mm | - | - | - |
| 1787932406 | 47.22° C | 100% | 1020.3 hPa | 0 mm | - | - | - |
| 1787932106 | 46.67° C | 100% | 1020.3 hPa | 0 mm | - | - | - |
| 1787931806 | 45.56° C | 100% | 1020.3 hPa | 0 mm | - | - | - |
| 1787931506 | 44.44° C | 100% | 1020.2 hPa | 0 mm | - | - | - |
| 1787931353 | 42.78° C | 100% | 1020.1 hPa | 0 mm | - | - | - |
| 1787931288 | 42.78° C | 100% | 1020.1 hPa | 0 mm | - | - | - |
| 1787931206 | 42.78° C | 100% | 1020.1 hPa | 0 mm | - | - | - |
| 1787930906 | 40.56° C | 100% | 1020.1 hPa | 0 mm | - | - | - |
| 1787930606 | 38.89° C | 100% | 1020.1 hPa | 0 mm | - | - | - |
| 1787930306 | 37.78° C | 100% | 1020 hPa | 0 mm | - | - | - |
* Rain latest hour (hover to see other rain measurements)
** Current wind speed in m/s (hover to see current wind gust speed)